| time (UTC) | temp F | wind direction | speed MPH | gust MPH | rain 1hr in | rain 24hr in | rain mn in | humidity % | barometer mb |
| 20260903195543 | 80 | 126 | 2.0 | 7.0 | 0.00 | 0.81 | 0.54 | 73 | 1004.5 |
| 20260903195043 | 80 | 315 | 1.0 | 8.0 | 0.00 | 0.81 | 0.54 | 72 | 1004.5 |
| 20260903194548 | 79 | 198 | 3.0 | 8.0 | 0.00 | 0.81 | 0.54 | 73 | 1004.5 |
| 20260903194039 | 79 | 86 | 0.0 | 6.0 | 0.00 | 0.81 | 0.54 | 71 | 1004.5 |
| 20260903193538 | 79 | 174 | 1.0 | 9.0 | 0.00 | 0.81 | 0.54 | 73 | 1004.6 |
| 20260903193043 | 79 | 174 | 3.0 | 8.0 | 0.00 | 0.81 | 0.54 | 74 | 1004.7 |
| 20260903192537 | 78 | 129 | 0.0 | 9.0 | 0.00 | 0.81 | 0.54 | 76 | 1004.7 |
| 20260903192039 | 78 | 180 | 3.0 | 9.0 | 0.00 | 0.81 | 0.54 | 76 | 1004.7 |
| 20260903191543 | 77 | 82 | 2.0 | 9.0 | 0.00 | 0.81 | 0.54 | 78 | 1004.7 |
| 20260903191035 | 77 | 103 | 0.0 | 7.0 | 0.00 | 0.81 | 0.54 | 76 | 1004.7 |
| 20260903190535 | 78 | 112 | 2.0 | 9.0 | 0.00 | 0.81 | 0.54 | 76 | 1004.8 |
| 20260903190047 | 78 | 135 | 1.0 | 9.0 | 0.00 | 0.81 | 0.54 | 75 | 1004.7 |
| 20260903185535 | 78 | 268 | 2.0 | 8.0 | 0.00 | 0.81 | 0.54 | 78 | 1004.7 |
| 20260903185034 | 78 | 309 | 1.0 | 8.0 | 0.00 | 0.81 | 0.54 | 77 | 1004.8 |
| 20260903184533 | 78 | 305 | 1.0 | 8.0 | 0.00 | 0.81 | 0.54 | 75 | 1004.8 |
| 20260903184032 | 78 | 159 | 3.0 | 9.0 | 0.00 | 0.81 | 0.54 | 76 | 1004.7 |
| 20260903183532 | 78 | 132 | 3.0 | 8.0 | 0.00 | 0.81 | 0.54 | 78 | 1004.7 |
| 20260903183030 | 77 | 161 | 3.0 | 7.0 | 0.00 | 0.81 | 0.54 | 80 | 1004.7 |
| 20260903182532 | 77 | 58 | 1.0 | 8.0 | 0.00 | 0.81 | 0.54 | 78 | 1004.8 |
| 20260903182028 | 76 | 105 | 2.0 | 8.0 | 0.00 | 0.81 | 0.54 | 78 | 1004.9 |
| 20260903181540 | 76 | 96 | 2.0 | 7.0 | 0.00 | 0.81 | 0.54 | 78 | 1004.9 |
| 20260903181030 | 77 | 283 | 1.0 | 8.0 | 0.00 | 0.81 | 0.54 | 76 | 1005.0 |
| 20260903180528 | 77 | 232 | 3.0 | 8.0 | 0.00 | 0.81 | 0.54 | 76 | 1005.0 |
| 20260903180027 | 78 | 165 | 2.0 | 8.0 | 0.00 | 0.81 | 0.54 | 77 | 1005.0 |
| 20260903175527 | 77 | 105 | 2.0 | 7.0 | 0.00 | 0.81 | 0.54 | 80 | 1004.9 |
| 20260903175024 | 77 | 288 | 2.0 | 9.0 | 0.00 | 0.81 | 0.54 | 80 | 1004.9 |
| 20260903174523 | 77 | 223 | 0.0 | 7.0 | 0.00 | 0.81 | 0.54 | 81 | 1005.0 |
| 20260903174022 | 76 | 154 | 1.0 | 10.0 | 0.00 | 0.81 | 0.54 | 80 | 1005.1 |
| 20260903173521 | 76 | 178 | 2.0 | 10.0 | 0.00 | 0.81 | 0.54 | 80 | 1005.2 |
| 20260903173019 | 76 | 163 | 2.0 | 11.0 | 0.00 | 0.81 | 0.54 | 78 | 1005.2 |
| 20260903172518 | 76 | 147 | 3.0 | 11.0 | 0.00 | 0.81 | 0.54 | 80 | 1005.2 |
| 20260903172019 | 76 | 244 | 3.0 | 9.0 | 0.00 | 0.81 | 0.54 | 80 | 1005.1 |
| 20260903171527 | 76 | 196 | 2.0 | 7.0 | 0.00 | 0.81 | 0.54 | 81 | 1005.2 |
| 20260903171014 | 76 | 274 | 2.0 | 8.0 | 0.00 | 0.81 | 0.54 | 81 | 1005.2 |
| 20260903170514 | 76 | 211 | 3.0 | 8.0 | 0.00 | 0.81 | 0.54 | 82 | 1005.2 |
| 20260903170012 | 75 | 216 | 1.0 | 9.0 | 0.00 | 0.81 | 0.54 | 81 | 1005.3 |
| 20260903165510 | 75 | 164 | 3.0 | 9.0 | 0.00 | 0.81 | 0.54 | 82 | 1005.3 |
| 20260903165010 | 75 | 138 | 1.0 | 5.0 | 0.00 | 0.81 | 0.54 | 82 | 1005.4 |
| 20260903164508 | 74 | 246 | 2.0 | 4.0 | 0.00 | 0.81 | 0.54 | 83 | 1005.4 |
| 20260903164007 | 74 | 117 | 0.0 | 9.0 | 0.00 | 0.81 | 0.54 | 83 | 1005.4 |
| 20260903163508 | 74 | 122 | 2.0 | 9.0 | 0.00 | 0.81 | 0.54 | 83 | 1005.5 |
| 20260903163006 | 74 | 148 | 1.0 | 7.0 | 0.00 | 0.81 | 0.54 | 84 | 1005.5 |
| 20260903162504 | 73 | 212 | 1.0 | 8.0 | 0.00 | 0.81 | 0.54 | 84 | 1005.6 |
| 20260903162004 | 73 | 46 | 2.0 | 4.0 | 0.00 | 0.81 | 0.54 | 85 | 1005.5 |
| 20260903161502 | 73 | 97 | 0.0 | 3.0 | 0.00 | 0.81 | 0.54 | 84 | 1005.6 |
| 20260903161003 | 73 | 36 | 0.0 | 4.0 | 0.00 | 0.81 | 0.54 | 85 | 1005.6 |
| 20260903160505 | 73 | 107 | 1.0 | 7.0 | 0.00 | 0.81 | 0.54 | 85 | 1005.7 |
| 20260903160001 | 73 | 184 | 2.0 | 7.0 | 0.00 | 0.81 | 0.54 | 84 | 1005.7 |
| 20260903155501 | 73 | 360 | 1.0 | 7.0 | 0.00 | 0.81 | 0.54 | 86 | 1005.7 |
| 20260903155101 | 73 | 103 | 2.0 | 8.0 | 0.00 | 0.81 | 0.54 | 84 | 1005.7 |
| 20260903154558 | 73 | 281 | 2.0 | 8.0 | 0.00 | 0.81 | 0.54 | 85 | 1005.7 |
| 20260903154057 | 72 | 232 | 2.0 | 8.0 | 0.00 | 0.81 | 0.54 | 85 | 1005.8 |
| 20260903153555 | 72 | 272 | 1.0 | 6.0 | 0.00 | 0.81 | 0.54 | 87 | 1006.0 |
| 20260903153054 | 72 | 223 | 2.0 | 6.0 | 0.00 | 0.81 | 0.54 | 87 | 1006.0 |
| 20260903152553 | 72 | 302 | 2.0 | 7.0 | 0.00 | 0.81 | 0.54 | 86 | 1006.1 |
| 20260903152051 | 71 | 286 | 1.0 | 10.0 | 0.00 | 0.81 | 0.54 | 88 | 1006.1 |
| 20260903151553 | 71 | 167 | 4.0 | 10.0 | 0.00 | 0.81 | 0.54 | 88 | 1006.2 |
| 20260903151049 | 70 | 150 | 1.0 | 4.0 | 0.00 | 0.81 | 0.54 | 88 | 1006.2 |
| 20260903150549 | 70 | 88 | 1.0 | 5.0 | 0.00 | 0.81 | 0.54 | 89 | 1006.3 |
| 20260903150110 | 70 | 109 | 2.0 | 7.0 | 0.00 | 0.81 | 0.54 | 89 | 1006.4 |
| 20260903145546 | 70 | 159 | 2.0 | 7.0 | 0.00 | 0.81 | 0.54 | 90 | 1006.6 |
| 20260903145046 | 69 | 90 | 0.0 | 3.0 | 0.00 | 0.81 | 0.54 | 92 | 1006.6 |
| 20260903144544 | 69 | 117 | 1.0 | 6.0 | 0.00 | 0.81 | 0.54 | 92 | 1006.6 |
| 20260903144044 | 68 | 126 | 2.0 | 8.0 | 0.00 | 0.81 | 0.54 | 91 | 1006.5 |
| 20260903143542 | 68 | 146 | 2.0 | 8.0 | 0.00 | 0.81 | 0.54 | 91 | 1006.6 |
| 20260903143045 | 68 | 124 | 1.0 | 7.0 | 0.00 | 0.81 | 0.54 | 91 | 1006.6 |
| 20260903142541 | 68 | 142 | 1.0 | 7.0 | 0.00 | 0.81 | 0.54 | 91 | 1006.7 |
| 20260903142041 | 68 | 34 | 1.0 | 7.0 | 0.00 | 0.81 | 0.54 | 93 | 1006.7 |
| 20260903141539 | 67 | 133 | 2.0 | 7.0 | 0.00 | 0.81 | 0.54 | 93 | 1006.7 |
| 20260903141038 | 67 | 227 | 1.0 | 8.0 | 0.00 | 0.81 | 0.54 | 93 | 1006.6 |
| 20260903140537 | 67 | 273 | 1.0 | 5.0 | 0.00 | 0.81 | 0.54 | 93 | 1006.7 |
| 20260903140043 | 66 | 148 | 1.0 | 5.0 | 0.00 | 0.81 | 0.54 | 93 | 1006.7 |
| 20260903135637 | 66 | 253 | 1.0 | 5.0 | 0.00 | 0.81 | 0.54 | 93 | 1006.7 |
| 20260903135035 | 66 | 122 | 0.0 | 5.0 | 0.00 | 0.81 | 0.54 | 93 | 1006.7 |
| 20260903134535 | 66 | 117 | 1.0 | 5.0 | 0.00 | 0.81 | 0.54 | 94 | 1006.6 |
| 20260903134033 | 66 | 144 | 1.0 | 4.0 | 0.00 | 0.81 | 0.54 | 95 | 1006.6 |
| 20260903133532 | 66 | 121 | 2.0 | 4.0 | 0.00 | 0.81 | 0.54 | 95 | 1006.5 |
| 20260903133032 | 66 | 247 | 1.0 | 7.0 | 0.00 | 0.81 | 0.54 | 95 | 1006.6 |
| 20260903132532 | 65 | 126 | 2.0 | 7.0 | 0.00 | 0.81 | 0.54 | 95 | 1006.7 |
| 20260903132030 | 65 | 150 | 1.0 | 4.0 | 0.00 | 0.81 | 0.54 | 95 | 1006.6 |
| 20260903131530 | 65 | 32 | 0.0 | 7.0 | 0.00 | 0.81 | 0.54 | 95 | 1006.6 |
| 20260903131030 | 65 | 172 | 1.0 | 5.0 | 0.00 | 0.81 | 0.54 | 95 | 1006.5 |
| 20260903130529 | 65 | 148 | 2.0 | 5.0 | 0.00 | 0.81 | 0.54 | 95 | 1006.4 |
| 20260903130028 | 65 | 127 | 0.0 | 3.0 | 0.00 | 0.81 | 0.54 | 95 | 1006.5 |
| 20260903125528 | 65 | 149 | 0.0 | 6.0 | 0.00 | 0.81 | 0.54 | 95 | 1006.5 |
| 20260903125030 | 64 | 121 | 1.0 | 6.0 | 0.00 | 0.81 | 0.54 | 95 | 1006.5 |
| 20260903124527 | 64 | 96 | 2.0 | 4.0 | 0.00 | 0.81 | 0.54 | 95 | 1006.6 |
| 20260903124026 | 64 | 115 | 1.0 | 5.0 | 0.00 | 0.81 | 0.54 | 95 | 1006.7 |
| 20260903123525 | 64 | 128 | 2.0 | 6.0 | 0.00 | 0.81 | 0.54 | 96 | 1006.8 |
| 20260903123029 | 64 | 123 | 0.0 | 3.0 | 0.00 | 0.81 | 0.54 | 96 | 1006.8 |
| 20260903122626 | 64 | 120 | 0.0 | 3.0 | 0.00 | 0.81 | 0.54 | 96 | 1006.7 |
| 20260903122025 | 64 | 184 | 1.0 | 3.0 | 0.00 | 0.81 | 0.54 | 95 | 1006.7 |
| 20260903121523 | 64 | 131 | 1.0 | 2.0 | 0.00 | 0.81 | 0.54 | 95 | 1006.8 |
| 20260903121023 | 64 | 171 | 0.0 | 4.0 | 0.00 | 0.81 | 0.54 | 96 | 1006.9 |
| 20260903120524 | 64 | 188 | 0.0 | 4.0 | 0.00 | 0.81 | 0.54 | 96 | 1006.9 |
| 20260903120026 | 63 | 184 | 1.0 | 3.0 | 0.00 | 0.81 | 0.54 | 95 | 1006.9 |
| 20260903115522 | 63 | 146 | 0.0 | 2.0 | 0.00 | 0.81 | 0.54 | 95 | 1006.9 |
| 20260903115022 | 63 | 138 | 0.0 | 3.0 | 0.00 | 0.81 | 0.54 | 95 | 1007.0 |
| 20260903114522 | 63 | 157 | 1.0 | 3.0 | 0.00 | 0.81 | 0.54 | 96 | 1007.0 |
| 20260903114021 | 63 | 157 | 1.0 | 3.0 | 0.00 | 0.81 | 0.54 | 96 | 1007.0 |
| 20260903113524 | 63 | 161 | 0.0 | 4.0 | 0.00 | 0.81 | 0.54 | 96 | 1007.0 |
| 20260903113020 | 63 | 95 | 0.0 | 7.0 | 0.00 | 0.81 | 0.54 | 96 | 1007.0 |
| 20260903112520 | 63 | 160 | 2.0 | 8.0 | 0.00 | 0.81 | 0.54 | 95 | 1007.0 |
| 20260903112022 | 63 | 120 | 1.0 | 7.0 | 0.00 | 0.81 | 0.54 | 95 | 1007.0 |
| 20260903111519 | 63 | 140 | 0.0 | 2.0 | 0.00 | 0.81 | 0.54 | 95 | 1007.0 |
| 20260903111020 | 63 | 227 | 0.0 | 5.0 | 0.00 | 0.81 | 0.54 | 95 | 1007.0 |
| 20260903110518 | 63 | 215 | 0.0 | 6.0 | 0.00 | 0.81 | 0.54 | 96 | 1007.0 |
| 20260903110017 | 63 | 178 | 1.0 | 4.0 | 0.00 | 0.81 | 0.54 | 96 | 1006.9 |
| 20260903105518 | 63 | 156 | 0.0 | 5.0 | 0.00 | 0.81 | 0.54 | 96 | 1006.9 |
| 20260903105019 | 63 | 130 | 0.0 | 4.0 | 0.00 | 0.81 | 0.54 | 96 | 1006.8 |
| 20260903104517 | 63 | 143 | 1.0 | 4.0 | 0.00 | 0.81 | 0.54 | 96 | 1006.7 |
| 20260903104017 | 63 | 128 | 0.0 | 3.0 | 0.00 | 0.81 | 0.54 | 96 | 1006.6 |
| 20260903103516 | 63 | 144 | 0.0 | 4.0 | 0.00 | 0.81 | 0.54 | 96 | 1006.7 |
| 20260903103016 | 63 | 105 | 1.0 | 4.0 | 0.00 | 0.81 | 0.54 | 96 | 1006.7 |
| 20260903102516 | 63 | 134 | 0.0 | 5.0 | 0.00 | 0.81 | 0.54 | 96 | 1006.7 |
| 20260903102015 | 62 | 147 | 2.0 | 5.0 | 0.00 | 0.81 | 0.54 | 96 | 1006.6 |
| 20260903101515 | 62 | 124 | 1.0 | 7.0 | 0.00 | 0.81 | 0.54 | 96 | 1006.5 |
| 20260903101015 | 62 | 243 | 1.0 | 7.0 | 0.00 | 0.81 | 0.54 | 96 | 1006.6 |
| 20260903100516 | 62 | 185 | 0.0 | 4.0 | 0.00 | 0.81 | 0.54 | 96 | 1006.5 |
| 20260903100024 | 62 | 74 | 1.0 | 2.0 | 0.00 | 0.81 | 0.54 | 96 | 1006.5 |
| 20260903095515 | 62 | 99 | 0.0 | 3.0 | 0.00 | 0.81 | 0.54 | 96 | 1006.4 |
| 20260903095018 | 62 | 131 | 0.0 | 5.0 | 0.00 | 0.81 | 0.54 | 95 | 1006.4 |
| 20260903094514 | 62 | 137 | 1.0 | 5.0 | 0.00 | 0.81 | 0.54 | 95 | 1006.5 |
| 20260903094015 | 62 | 103 | 1.0 | 5.0 | 0.00 | 0.81 | 0.54 | 95 | 1006.5 |
| 20260903093516 | 62 | 105 | 0.0 | 8.0 | 0.00 | 0.81 | 0.54 | 95 | 1006.5 |
| 20260903093013 | 62 | 101 | 2.0 | 8.0 | 0.00 | 0.81 | 0.54 | 95 | 1006.3 |
| 20260903092512 | 62 | 135 | 1.0 | 5.0 | 0.00 | 0.81 | 0.54 | 96 | 1006.4 |
| 20260903092011 | 62 | 161 | 1.0 | 4.0 | 0.00 | 0.81 | 0.54 | 96 | 1006.5 |
| 20260903091511 | 62 | 101 | 1.0 | 4.0 | 0.00 | 0.81 | 0.54 | 96 | 1006.4 |
| 20260903091010 | 62 | 97 | 1.0 | 5.0 | 0.00 | 0.81 | 0.54 | 96 | 1006.3 |
| 20260903090510 | 62 | 165 | 2.0 | 4.0 | 0.00 | 0.81 | 0.54 | 96 | 1006.3 |
| 20260903090011 | 62 | 27 | 1.0 | 4.0 | 0.00 | 0.81 | 0.54 | 96 | 1006.3 |
| 20260903085511 | 62 | 116 | 1.0 | 7.0 | 0.00 | 0.81 | 0.54 | 96 | 1006.2 |
| 20260903085007 | 62 | 141 | 0.0 | 5.0 | 0.00 | 0.81 | 0.54 | 96 | 1006.4 |
| 20260903084506 | 62 | 137 | 2.0 | 10.0 | 0.00 | 0.81 | 0.54 | 95 | 1006.5 |
| 20260903084007 | 62 | 157 | 3.0 | 10.0 | 0.00 | 0.81 | 0.54 | 95 | 1006.5 |
| 20260903083505 | 62 | 137 | 0.0 | 6.0 | 0.00 | 0.81 | 0.54 | 95 | 1006.6 |
| 20260903083005 | 62 | 140 | 2.0 | 6.0 | 0.00 | 0.81 | 0.54 | 95 | 1006.7 |
| 20260903082504 | 62 | 94 | 2.0 | 6.0 | 0.00 | 0.81 | 0.54 | 95 | 1006.7 |
| 20260903082006 | 62 | 108 | 2.0 | 7.0 | 0.00 | 0.81 | 0.54 | 95 | 1006.8 |
| 20260903081506 | 62 | 139 | 2.0 | 7.0 | 0.00 | 0.81 | 0.54 | 95 | 1006.7 |
| 20260903081006 | 62 | 137 | 2.0 | 7.0 | 0.00 | 0.81 | 0.54 | 95 | 1006.8 |
| 20260903080503 | 62 | 76 | 1.0 | 7.0 | 0.01 | 0.81 | 0.54 | 95 | 1006.8 |
| 20260903080004 | 61 | 123 | 2.0 | 8.0 | 0.01 | 0.81 | 0.54 | 96 | 1006.8 |
| 20260903075504 | 61 | 155 | 1.0 | 9.0 | 0.01 | 0.81 | 0.54 | 96 | 1006.7 |
| 20260903075002 | 61 | 132 | 2.0 | 9.0 | 0.01 | 0.81 | 0.54 | 96 | 1006.7 |
| 20260903074501 | 61 | 178 | 2.0 | 5.0 | 0.01 | 0.81 | 0.54 | 96 | 1006.8 |
| 20260903074001 | 61 | 111 | 2.0 | 7.0 | 0.01 | 0.81 | 0.54 | 96 | 1006.9 |
| 20260903073502 | 61 | 197 | 2.0 | 6.0 | 0.01 | 0.81 | 0.54 | 96 | 1006.9 |
| 20260903073001 | 61 | 96 | 0.0 | 6.0 | 0.02 | 0.81 | 0.54 | 96 | 1006.9 |
| 20260903072501 | 61 | 128 | 1.0 | 7.0 | 0.03 | 0.81 | 0.54 | 96 | 1006.9 |
| 20260903072001 | 61 | 136 | 1.0 | 7.0 | 0.05 | 0.81 | 0.54 | 96 | 1006.9 |
| 20260903071631 | 61 | 177 | 0.0 | 4.0 | 0.05 | 0.81 | 0.54 | 96 | 1006.8 |
| 20260903071100 | 61 | 120 | 0.0 | 7.0 | 0.08 | 0.81 | 0.54 | 96 | 1006.9 |
| 20260903070600 | 61 | 198 | 1.0 | 9.0 | 0.09 | 0.80 | 0.53 | 96 | 1006.9 |
| 20260903070105 | 61 | 143 | 2.0 | 9.0 | 0.09 | 0.80 | 0.53 | 96 | 1006.9 |
| 20260903065600 | 61 | 159 | 2.0 | 7.0 | 0.10 | 0.80 | 0.53 | 96 | 1007.0 |
| 20260903065101 | 61 | 146 | 2.0 | 6.0 | 0.10 | 0.80 | 0.53 | 96 | 1007.0 |
| 20260903064606 | 61 | 131 | 1.0 | 6.0 | 0.10 | 0.80 | 0.53 | 96 | 1006.9 |
| 20260903064058 | 61 | 119 | 0.0 | 8.0 | 0.11 | 0.80 | 0.53 | 96 | 1007.0 |
| 20260903063558 | 61 | 120 | 3.0 | 9.0 | 0.12 | 0.80 | 0.53 | 96 | 1006.8 |
| 20260903063104 | 61 | 123 | 3.0 | 9.0 | 0.12 | 0.79 | 0.52 | 96 | 1007.0 |
| 20260903062557 | 61 | 170 | 3.0 | 8.0 | 0.13 | 0.79 | 0.52 | 96 | 1006.9 |
| 20260903062057 | 61 | 150 | 1.0 | 4.0 | 0.12 | 0.77 | 0.50 | 96 | 1007.0 |
| 20260903061603 | 61 | 154 | 0.0 | 7.0 | 0.12 | 0.76 | 0.49 | 96 | 1006.9 |
| 20260903061056 | 61 | 134 | 1.0 | 7.0 | 0.10 | 0.73 | 0.46 | 96 | 1007.1 |
| 20260903060556 | 61 | 149 | 0.0 | 8.0 | 0.08 | 0.71 | 0.44 | 96 | 1007.1 |
| 20260903060056 | 61 | 49 | 0.0 | 10.0 | 0.08 | 0.71 | 0.44 | 96 | 1007.0 |
| 20260903055555 | 61 | 181 | 2.0 | 10.0 | 0.09 | 0.70 | 0.43 | 96 | 1007.1 |
| 20260903055053 | 61 | 104 | 2.0 | 6.0 | 0.10 | 0.70 | 0.43 | 96 | 1007.4 |
| 20260903054552 | 62 | 142 | 0.0 | 6.0 | 0.11 | 0.70 | 0.43 | 96 | 1007.3 |
| 20260903054051 | 62 | 88 | 1.0 | 5.0 | 0.12 | 0.69 | 0.42 | 96 | 1007.5 |
| 20260903053551 | 62 | 115 | 0.0 | 4.0 | 0.15 | 0.68 | 0.41 | 96 | 1007.6 |
| 20260903053051 | 62 | 121 | 1.0 | 5.0 | 0.17 | 0.67 | 0.40 | 96 | 1007.8 |
| 20260903052550 | 62 | 111 | 1.0 | 5.0 | 0.20 | 0.66 | 0.39 | 96 | 1008.0 |
| 20260903052051 | 62 | 145 | 2.0 | 5.0 | 0.23 | 0.65 | 0.38 | 96 | 1008.2 |
| 20260903051550 | 62 | 281 | 0.0 | 3.0 | 0.26 | 0.64 | 0.37 | 96 | 1008.3 |
| 20260903051049 | 62 | 317 | 0.0 | 3.0 | 0.30 | 0.63 | 0.36 | 96 | 1008.2 |
| 20260903050550 | 62 | 298 | 1.0 | 4.0 | 0.33 | 0.63 | 0.36 | 96 | 1008.0 |
| 20260903050105 | 62 | 36 | 0.0 | 4.0 | 0.35 | 0.62 | 0.35 | 96 | 1007.7 |
| 20260903045548 | 62 | 153 | 0.0 | 3.0 | 0.36 | 0.61 | 0.34 | 95 | 1007.6 |
| 20260903045048 | 62 | 130 | 0.0 | 8.0 | 0.38 | 0.60 | 0.33 | 95 | 1007.6 |
| 20260903044558 | 62 | 25 | 2.0 | 8.0 | 0.38 | 0.59 | 0.32 | 95 | 1007.6 |
| 20260903044047 | 62 | 110 | 2.0 | 7.0 | 0.40 | 0.56 | 0.28 | 95 | 1007.6 |
| 20260903043545 | 62 | 105 | 1.0 | 3.0 | 0.40 | 0.53 | 0.26 | 95 | 1008.2 |
| 20260903043046 | 62 | 173 | 0.0 | 3.0 | 0.39 | 0.50 | 0.23 | 95 | 1008.3 |
| 20260903042544 | 62 | 121 | 1.0 | 7.0 | 0.35 | 0.46 | 0.19 | 95 | 1008.5 |
| 20260903042045 | 62 | 116 | 2.0 | 8.0 | 0.31 | 0.42 | 0.15 | 95 | 1008.5 |
| 20260903041543 | 62 | 113 | 2.0 | 8.0 | 0.27 | 0.37 | 0.10 | 95 | 1008.4 |
| 20260903041041 | 62 | 188 | 0.0 | 2.0 | 0.24 | 0.33 | 0.06 | 95 | 1008.7 |
| 20260903040540 | 62 | 111 | 0.0 | 3.0 | 0.22 | 0.30 | 0.03 | 95 | 1008.6 |
| 20260903040049 | 62 | 144 | 1.0 | 4.0 | 0.19 | 0.27 | 0.00 | 95 | 1008.5 |
| 20260903035538 | 62 | 141 | 1.0 | 7.0 | 0.18 | 0.25 | 0.25 | 94 | 1008.7 |
| 20260903035039 | 62 | 290 | 3.0 | 7.0 | 0.16 | 0.22 | 0.22 | 95 | 1008.6 |
| 20260903034538 | 62 | 136 | 0.0 | 7.0 | 0.15 | 0.21 | 0.21 | 94 | 1008.4 |
| 20260903034036 | 62 | 60 | 2.0 | 7.0 | 0.09 | 0.15 | 0.15 | 94 | 1008.3 |
| 20260903033535 | 62 | 197 | 2.0 | 7.0 | 0.06 | 0.12 | 0.12 | 94 | 1008.4 |
| 20260903033036 | 63 | 193 | 1.0 | 6.0 | 0.05 | 0.11 | 0.11 | 94 | 1008.2 |
| 20260903032535 | 63 | 107 | 2.0 | 5.0 | 0.06 | 0.11 | 0.11 | 94 | 1008.2 |
| 20260903032037 | 63 | 168 | 1.0 | 5.0 | 0.06 | 0.10 | 0.10 | 94 | 1008.1 |
| 20260903031538 | 63 | 102 | 1.0 | 6.0 | 0.08 | 0.10 | 0.10 | 94 | 1007.9 |
| 20260903031035 | 63 | 105 | 2.0 | 8.0 | 0.08 | 0.09 | 0.09 | 94 | 1008.2 |
| 20260903030535 | 63 | 46 | 2.0 | 8.0 | 0.07 | 0.08 | 0.08 | 93 | 1008.3 |
| 20260903030033 | 63 | 92 | 1.0 | 5.0 | 0.08 | 0.08 | 0.08 | 93 | 1008.3 |
| 20260903025532 | 63 | 103 | 1.0 | 8.0 | 0.07 | 0.07 | 0.07 | 93 | 1008.6 |
| 20260903025031 | 63 | 126 | 1.0 | 9.0 | 0.06 | 0.06 | 0.06 | 93 | 1008.8 |
| 20260903024530 | 63 | 107 | 1.0 | 7.0 | 0.06 | 0.06 | 0.06 | 93 | 1008.8 |
| 20260903024030 | 64 | 74 | 2.0 | 7.0 | 0.06 | 0.06 | 0.06 | 92 | 1008.8 |
| 20260903023529 | 64 | 155 | 1.0 | 5.0 | 0.06 | 0.06 | 0.06 | 92 | 1008.8 |
| 20260903023037 | 64 | 77 | 1.0 | 9.0 | 0.05 | 0.05 | 0.05 | 91 | 1008.7 |
| 20260903022628 | 64 | 88 | 2.0 | 9.0 | 0.05 | 0.05 | 0.05 | 91 | 1008.8 |
| 20260903022028 | 65 | 86 | 2.0 | 7.0 | 0.03 | 0.03 | 0.03 | 90 | 1008.8 |
| 20260903021527 | 65 | 44 | 1.0 | 11.0 | 0.02 | 0.02 | 0.02 | 89 | 1008.7 |
| 20260903021027 | 65 | 138 | 1.0 | 11.0 | 0.01 | 0.01 | 0.01 | 88 | 1008.8 |
| 20260903020527 | 66 | 117 | 1.0 | 9.0 | 0.01 | 0.01 | 0.01 | 87 | 1008.9 |
| 20260903020031 | 66 | 132 | 1.0 | 10.0 | 0.00 | 0.00 | 0.00 | 86 | 1009.0 |
| 20260903015527 | 66 | 83 | 2.0 | 10.0 | 0.00 | 0.00 | 0.00 | 84 | 1008.9 |
| 20260903015027 | 66 | 150 | 1.0 | 12.0 | 0.00 | 0.00 | 0.00 | 84 | 1009.1 |
| 20260903014526 | 66 | 92 | 4.0 | 12.0 | 0.00 | 0.00 | 0.00 | 83 | 1009.2 |
| 20260903014029 | 66 | 119 | 4.0 | 10.0 | 0.00 | 0.00 | 0.00 | 83 | 1009.2 |
| 20260903013526 | 66 | 140 | 2.0 | 11.0 | 0.00 | 0.00 | 0.00 | 84 | 1009.3 |
| 20260903013027 | 66 | 197 | 5.0 | 11.0 | 0.00 | 0.00 | 0.00 | 83 | 1009.4 |
| 20260903012525 | 66 | 127 | 4.0 | 11.0 | 0.00 | 0.00 | 0.00 | 83 | 1009.5 |
| 20260903012025 | 66 | 184 | 3.0 | 13.0 | 0.00 | 0.00 | 0.00 | 84 | 1009.4 |
| 20260903011526 | 66 | 102 | 4.0 | 16.0 | 0.00 | 0.00 | 0.00 | 83 | 1009.3 |
| 20260903011027 | 66 | 79 | 4.0 | 16.0 | 0.00 | 0.00 | 0.00 | 83 | 1009.3 |
| 20260903010524 | 66 | 110 | 3.0 | 14.0 | 0.00 | 0.00 | 0.00 | 83 | 1009.3 |
| 20260903010025 | 66 | 183 | 2.0 | 14.0 | 0.00 | 0.00 | 0.00 | 83 | 1009.2 |
| 20260903005525 | 66 | 121 | 2.0 | 14.0 | 0.00 | 0.00 | 0.00 | 83 | 1009.3 |
| 20260903005025 | 66 | 90 | 5.0 | 14.0 | 0.00 | 0.00 | 0.00 | 83 | 1009.3 |
| 20260903004532 | 66 | 117 | 5.0 | 14.0 | 0.00 | 0.00 | 0.00 | 83 | 1009.2 |
| 20260903004028 | 66 | 96 | 3.0 | 8.0 | 0.00 | 0.00 | 0.00 | 84 | 1008.8 |
| 20260903003524 | 66 | 191 | 2.0 | 10.0 | 0.00 | 0.00 | 0.00 | 84 | 1008.7 |
| 20260903003023 | 66 | 122 | 2.0 | 10.0 | 0.00 | 0.00 | 0.00 | 84 | 1008.7 |
| 20260903002525 | 66 | 147 | 2.0 | 12.0 | 0.00 | 0.00 | 0.00 | 83 | 1008.8 |
| 20260903002023 | 66 | 148 | 3.0 | 12.0 | 0.00 | 0.00 | 0.00 | 84 | 1008.8 |
| 20260903001526 | 66 | 188 | 3.0 | 11.0 | 0.00 | 0.00 | 0.00 | 84 | 1008.7 |
| 20260903001022 | 66 | 120 | 3.0 | 9.0 | 0.00 | 0.00 | 0.00 | 83 | 1008.9 |
| 20260903000522 | 66 | 125 | 2.0 | 13.0 | 0.00 | 0.00 | 0.00 | 83 | 1008.8 |
| 20260903000039 | 66 | 106 | 4.0 | 13.0 | 0.00 | 0.00 | 0.00 | 83 | 1008.9 |
| 20260902235522 | 66 | 54 | 5.0 | 10.0 | 0.00 | 0.00 | 0.00 | 83 | 1009.0 |
| 20260902235021 | 66 | 119 | 3.0 | 10.0 | 0.00 | 0.00 | 0.00 | 84 | 1009.0 |
| 20260902234526 | 66 | 180 | 2.0 | 8.0 | 0.00 | 0.00 | 0.00 | 83 | 1008.9 |
| 20260902234021 | 66 | 92 | 2.0 | 17.0 | 0.00 | 0.00 | 0.00 | 83 | 1008.8 |
| 20260902233521 | 66 | 106 | 2.0 | 17.0 | 0.00 | 0.00 | 0.00 | 84 | 1009.0 |
| 20260902233020 | 66 | 105 | 2.0 | 6.0 | 0.00 | 0.00 | 0.00 | 84 | 1009.1 |
| 20260902232522 | 66 | 118 | 2.0 | 11.0 | 0.00 | 0.00 | 0.00 | 83 | 1009.1 |
| 20260902232020 | 66 | 59 | 2.0 | 11.0 | 0.00 | 0.00 | 0.00 | 83 | 1009.2 |
| 20260902231519 | 66 | 115 | 3.0 | 11.0 | 0.00 | 0.00 | 0.00 | 83 | 1009.4 |
| 20260902231017 | 66 | 109 | 3.0 | 10.0 | 0.00 | 0.00 | 0.00 | 83 | 1009.6 |
| 20260902230516 | 66 | 112 | 3.0 | 9.0 | 0.00 | 0.00 | 0.00 | 83 | 1009.6 |
| 20260902230122 | 66 | 121 | 2.0 | 12.0 | 0.00 | 0.00 | 0.00 | 83 | 1009.7 |
| 20260902225615 | 66 | 80 | 3.0 | 12.0 | 0.00 | 0.00 | 0.00 | 83 | 1009.8 |
| 20260902225018 | 67 | 355 | 4.0 | 11.0 | 0.00 | 0.00 | 0.00 | 83 | 1009.9 |
| 20260902224513 | 67 | 108 | 3.0 | 12.0 | 0.00 | 0.00 | 0.00 | 83 | 1010.0 |
| 20260902224014 | 67 | 85 | 4.0 | 19.0 | 0.00 | 0.00 | 0.00 | 82 | 1010.1 |
| 20260902223513 | 67 | 88 | 5.0 | 13.0 | 0.00 | 0.00 | 0.00 | 82 | 1010.1 |
| 20260902223013 | 67 | 92 | 3.0 | 12.0 | 0.00 | 0.00 | 0.00 | 82 | 1009.7 |
| 20260902222512 | 67 | 113 | 3.0 | 14.0 | 0.00 | 0.00 | 0.00 | 82 | 1009.8 |
| 20260902222012 | 67 | 321 | 5.0 | 14.0 | 0.00 | 0.00 | 0.00 | 82 | 1010.0 |
| 20260902221516 | 67 | 95 | 3.0 | 15.0 | 0.00 | 0.00 | 0.00 | 82 | 1010.3 |
| 20260902221010 | 67 | 63 | 4.0 | 15.0 | 0.00 | 0.00 | 0.00 | 82 | 1010.4 |
| 20260902220510 | 68 | 203 | 4.0 | 16.0 | 0.00 | 0.00 | 0.00 | 81 | 1010.5 |
| 20260902220010 | 68 | 110 | 3.0 | 11.0 | 0.00 | 0.00 | 0.00 | 82 | 1010.5 |
| 20260902215509 | 68 | 186 | 4.0 | 11.0 | 0.00 | 0.00 | 0.00 | 81 | 1010.4 |
| 20260902215009 | 68 | 29 | 3.0 | 14.0 | 0.00 | 0.00 | 0.00 | 82 | 1010.5 |
| 20260902214515 | 68 | 42 | 4.0 | 14.0 | 0.00 | 0.00 | 0.00 | 81 | 1010.5 |
| 20260902214009 | 68 | 149 | 2.0 | 13.0 | 0.00 | 0.00 | 0.00 | 81 | 1010.6 |
| 20260902213507 | 68 | 182 | 4.0 | 13.0 | 0.00 | 0.00 | 0.00 | 80 | 1010.6 |
| 20260902213007 | 69 | 111 | 3.0 | 11.0 | 0.00 | 0.00 | 0.00 | 80 | 1010.6 |
| 20260902212508 | 69 | 111 | 3.0 | 11.0 | 0.00 | 0.00 | 0.00 | 80 | 1010.8 |
| 20260902212011 | 69 | 118 | 3.0 | 14.0 | 0.00 | 0.00 | 0.00 | 80 | 1011.0 |
| 20260902211509 | 69 | 137 | 6.0 | 14.0 | 0.00 | 0.00 | 0.00 | 79 | 1011.0 |
| 20260902211007 | 69 | 196 | 2.0 | 14.0 | 0.00 | 0.00 | 0.00 | 80 | 1011.1 |
| 20260902210508 | 69 | 150 | 2.0 | 14.0 | 0.00 | 0.00 | 0.00 | 79 | 1011.1 |
| 20260902210007 | 69 | 194 | 5.0 | 17.0 | 0.00 | 0.00 | 0.00 | 79 | 1011.1 |
| 20260902205506 | 69 | 196 | 7.0 | 17.0 | 0.00 | 0.00 | 0.00 | 79 | 1010.9 |
| 20260902205006 | 69 | 169 | 3.0 | 17.0 | 0.00 | 0.00 | 0.00 | 79 | 1010.7 |
| 20260902204507 | 69 | 153 | 4.0 | 16.0 | 0.00 | 0.00 | 0.00 | 78 | 1010.8 |
| 20260902204006 | 70 | 54 | 4.0 | 12.0 | 0.00 | 0.00 | 0.00 | 78 | 1010.8 |
| 20260902203504 | 70 | 132 | 3.0 | 11.0 | 0.00 | 0.00 | 0.00 | 79 | 1010.9 |
| 20260902203003 | 70 | 98 | 4.0 | 11.0 | 0.00 | 0.00 | 0.00 | 77 | 1011.1 |
| 20260902202503 | 70 | 147 | 2.0 | 10.0 | 0.00 | 0.00 | 0.00 | 77 | 1011.4 |
| 20260902202003 | 71 | 86 | 4.0 | 11.0 | 0.00 | 0.00 | 0.00 | 76 | 1011.7 |
| 20260902201503 | 71 | 108 | 2.0 | 10.0 | 0.00 | 0.00 | 0.00 | 77 | 1011.6 |
| 20260902201002 | 72 | 164 | 2.0 | 11.0 | 0.00 | 0.00 | 0.00 | 76 | 1011.6 |
| 20260902200503 | 72 | 142 | 2.0 | 11.0 | 0.00 | 0.00 | 0.00 | 77 | 1011.5 |